RYS2022 EPWR-LTAI

Flight info

Callsign RYS2022
Flight time 2h 36m
Altitude 37000
Route MOFKE T714 MAPIK T710 IBEKA DCT BABKO DCT NARKA DCT VIKBI DCT ADORU UG80 EKI UL606 CRD UL854 KOZLU
Aircraft B38M/M-SADE3FGILRWY/SB1

Departure

Time 2026-05-06 10:56
Airport Copernicus Wrocław Airport (EPWR)

Arrival

Time 2026-05-06 13:32
Airport Antalya International Airport (LTAI)
Time Latitude Longitude Altitude Speed Heading
2026-05-06 10:30 51.10444 16.90071 406 ft 0 kts 332°
2026-05-06 10:49 51.10438 16.90076 406 ft 4 kts 327°
2026-05-06 10:49 51.10420 16.90105 404 ft 4 kts 295°
2026-05-06 10:49 51.10412 16.90145 402 ft 4 kts 283°
2026-05-06 10:50 51.10406 16.90178 400 ft 3 kts 289°
2026-05-06 10:50 51.10400 16.90219 403 ft 4 kts 275°
2026-05-06 10:50 51.10400 16.90262 406 ft 4 kts 264°
2026-05-06 10:50 51.10402 16.90300 406 ft 1 kts 270°
2026-05-06 10:51 51.10402 16.90301 406 ft 2 kts 270°
2026-05-06 10:53 51.10402 16.90298 406 ft 1 kts 270°
2026-05-06 10:53 51.10402 16.90250 406 ft 8 kts 270°
2026-05-06 10:53 51.10364 16.90141 406 ft 16 kts 211°
2026-05-06 10:54 51.10248 16.90052 406 ft 20 kts 206°
2026-05-06 10:54 51.10120 16.89953 406 ft 21 kts 206°
2026-05-06 10:54 51.09994 16.89855 403 ft 17 kts 206°
2026-05-06 10:54 51.09916 16.89793 405 ft 8 kts 217°
2026-05-06 10:55 51.09917 16.89720 406 ft 0 kts 296°
2026-05-06 10:55 51.09924 16.89700 404 ft 9 kts 296°
2026-05-06 10:55 51.10064 16.89241 403 ft 87 kts 296°
2026-05-06 10:55 51.10441 16.88007 405 ft 158 kts 296°
2026-05-06 10:56 51.10995 16.86229 761 ft 189 kts 293°
2026-05-06 10:56 51.11545 16.84359 1849 ft 182 kts 292°
2026-05-06 10:56 51.12046 16.82511 2768 ft 188 kts 294°
2026-05-06 10:56 51.12612 16.80557 3395 ft 207 kts 294°
2026-05-06 10:57 51.12939 16.78160 3917 ft 236 kts 264°
2026-05-06 10:57 51.12382 16.75674 4777 ft 242 kts 232°
2026-05-06 10:57 51.11120 16.73816 5570 ft 257 kts 208°
2026-05-06 10:57 51.09375 16.73031 6401 ft 266 kts 180°
2026-05-06 10:58 51.07561 16.73619 7344 ft 271 kts 158°
2026-05-06 10:58 51.05951 16.75225 8364 ft 279 kts 139°
2026-05-06 10:58 51.04805 16.77753 9321 ft 287 kts 119°
2026-05-06 10:58 51.03857 16.80536 10096 ft 295 kts 124°
2026-05-06 10:59 51.02766 16.83465 10596 ft 314 kts 123°
2026-05-06 10:59 51.01630 16.86531 11162 ft 328 kts 123°
2026-05-06 10:59 51.00459 16.89705 11888 ft 336 kts 123°
2026-05-06 10:59 50.99284 16.92916 12760 ft 339 kts 124°
2026-05-06 11:00 50.98104 16.96138 13561 ft 344 kts 124°
2026-05-06 11:00 50.96879 16.99484 14278 ft 349 kts 124°
2026-05-06 11:00 50.95670 17.02785 14983 ft 352 kts 124°
2026-05-06 11:00 50.94431 17.06161 15703 ft 356 kts 123°
2026-05-06 11:01 50.93176 17.09579 16396 ft 361 kts 123°
2026-05-06 11:01 50.91904 17.13036 17069 ft 365 kts 123°
2026-05-06 11:01 50.90620 17.16526 17741 ft 369 kts 123°
2026-05-06 11:01 50.89317 17.20058 18337 ft 373 kts 123°
2026-05-06 11:02 50.88002 17.23619 18898 ft 376 kts 123°
2026-05-06 11:02 50.86674 17.27208 19456 ft 380 kts 123°
2026-05-06 11:02 50.85334 17.30827 19987 ft 383 kts 123°
2026-05-06 11:02 50.83980 17.34480 20545 ft 386 kts 123°
2026-05-06 11:03 50.82611 17.38167 21065 ft 390 kts 123°
2026-05-06 11:03 50.81234 17.41870 21596 ft 393 kts 123°
2026-05-06 11:03 50.79841 17.45613 22108 ft 397 kts 123°
2026-05-06 11:03 50.78434 17.49387 22638 ft 400 kts 123°
2026-05-06 11:04 50.77015 17.53185 23144 ft 403 kts 123°
2026-05-06 11:04 50.75586 17.57007 23579 ft 406 kts 123°
2026-05-06 11:04 50.74142 17.60862 24006 ft 409 kts 123°
2026-05-06 11:04 50.72691 17.64732 24436 ft 411 kts 123°
2026-05-06 11:05 50.71225 17.68627 24855 ft 413 kts 124°
2026-05-06 11:05 50.69471 17.72178 25264 ft 410 kts 137°
2026-05-06 11:05 50.67533 17.75513 25631 ft 414 kts 134°
2026-05-06 11:05 50.65643 17.78956 26030 ft 417 kts 133°
2026-05-06 11:06 50.63753 17.82441 26443 ft 419 kts 133°
2026-05-06 11:06 50.61866 17.85948 26830 ft 421 kts 133°
2026-05-06 11:06 50.59971 17.89483 27226 ft 424 kts 133°
2026-05-06 11:06 50.58062 17.93043 27604 ft 426 kts 133°
2026-05-06 11:07 50.56149 17.96609 27985 ft 428 kts 133°
2026-05-06 11:07 50.54224 18.00191 28346 ft 430 kts 133°
2026-05-06 11:07 50.52289 18.03790 28703 ft 432 kts 133°
2026-05-06 11:07 50.50349 18.07391 29056 ft 434 kts 133°
2026-05-06 11:08 50.48388 18.11027 29414 ft 436 kts 133°
2026-05-06 11:08 50.46421 18.14667 29766 ft 438 kts 133°
2026-05-06 11:08 50.44442 18.18325 30080 ft 440 kts 133°
2026-05-06 11:08 50.42456 18.21991 30366 ft 442 kts 133°
2026-05-06 11:09 50.40463 18.25666 30656 ft 444 kts 134°
2026-05-06 11:09 50.38458 18.29357 30935 ft 446 kts 134°
2026-05-06 11:09 50.36440 18.33065 31219 ft 448 kts 134°
2026-05-06 11:09 50.34416 18.36780 31470 ft 450 kts 134°
2026-05-06 11:10 50.32380 18.40511 31738 ft 452 kts 134°
2026-05-06 11:10 50.30336 18.44252 31991 ft 453 kts 134°
2026-05-06 11:10 50.28284 18.48002 32254 ft 455 kts 134°
2026-05-06 11:10 50.26218 18.51772 32515 ft 457 kts 134°
2026-05-06 11:11 50.24147 18.55547 32810 ft 458 kts 134°
2026-05-06 11:11 50.22074 18.59318 33163 ft 457 kts 134°
2026-05-06 11:11 50.20002 18.63083 33492 ft 457 kts 134°
2026-05-06 11:11 50.17930 18.66841 34059 ft 457 kts 134°
2026-05-06 11:12 50.15859 18.70594 34329 ft 457 kts 134°
2026-05-06 11:12 50.13784 18.74348 34579 ft 457 kts 134°
2026-05-06 11:12 50.11707 18.78099 34835 ft 457 kts 134°
2026-05-06 11:12 50.09631 18.81845 35096 ft 457 kts 134°
2026-05-06 11:13 50.07581 18.85538 35336 ft 457 kts 134°
2026-05-06 11:13 50.05498 18.89283 35564 ft 457 kts 134°
2026-05-06 11:13 50.03416 18.93014 35808 ft 457 kts 135°
2026-05-06 11:13 50.01095 18.96340 36044 ft 451 kts 145°
2026-05-06 11:14 49.98662 18.99425 36251 ft 452 kts 143°
2026-05-06 11:14 49.96237 19.02539 36461 ft 453 kts 144°
2026-05-06 11:14 49.93803 19.05653 36691 ft 452 kts 144°
2026-05-06 11:14 49.91376 19.08749 36901 ft 453 kts 144°
2026-05-06 11:15 49.88942 19.11851 37052 ft 453 kts 144°
2026-05-06 11:15 49.84068 19.18048 37051 ft 451 kts 144°
2026-05-06 11:16 49.79203 19.24216 37063 ft 455 kts 144°
2026-05-06 11:16 49.74262 19.30465 37056 ft 462 kts 144°
2026-05-06 11:17 49.69267 19.36765 36854 ft 464 kts 144°
2026-05-06 11:17 49.64261 19.43062 36863 ft 464 kts 144°
2026-05-06 11:18 49.59113 19.48997 36870 ft 461 kts 149°
2026-05-06 11:18 49.53813 19.54578 36868 ft 462 kts 148°
2026-05-06 11:19 49.48525 19.60211 36869 ft 462 kts 148°
2026-05-06 11:19 49.43245 19.65830 36879 ft 462 kts 148°
2026-05-06 11:20 49.37956 19.71442 36878 ft 462 kts 148°
2026-05-06 11:20 49.32664 19.77046 36884 ft 462 kts 148°
2026-05-06 11:21 49.27372 19.82632 36896 ft 462 kts 148°
2026-05-06 11:21 49.22075 19.88209 36904 ft 462 kts 148°
2026-05-06 11:22 49.16779 19.93772 36911 ft 462 kts 148°
2026-05-06 11:22 49.11511 19.99290 36908 ft 463 kts 149°
2026-05-06 11:23 49.06196 20.04841 36916 ft 463 kts 149°
2026-05-06 11:23 49.00884 20.10376 36905 ft 462 kts 148°
2026-05-06 11:24 48.95575 20.15893 36916 ft 462 kts 148°
2026-05-06 11:24 48.90259 20.21402 36918 ft 462 kts 149°
2026-05-06 11:25 48.84937 20.26904 36910 ft 463 kts 149°
2026-05-06 11:25 48.79615 20.32391 36927 ft 463 kts 149°
2026-05-06 11:26 48.74285 20.37872 36933 ft 463 kts 149°
2026-05-06 11:26 48.68951 20.43343 36926 ft 463 kts 149°
2026-05-06 11:27 48.63614 20.48803 36925 ft 463 kts 149°
2026-05-06 11:27 48.58276 20.54249 36928 ft 463 kts 149°
2026-05-06 11:28 48.52938 20.59682 36927 ft 463 kts 149°
2026-05-06 11:28 48.47585 20.65115 36926 ft 463 kts 149°
2026-05-06 11:29 48.43145 20.69612 36927 ft 463 kts 149°
2026-05-06 11:29 48.38072 20.74738 36926 ft 464 kts 149°
2026-05-06 11:30 48.33613 20.79233 36923 ft 464 kts 149°
2026-05-06 11:30 48.28252 20.84624 36928 ft 464 kts 149°
2026-05-06 11:31 48.22887 20.90005 36926 ft 464 kts 149°
2026-05-06 11:31 48.17514 20.95381 36928 ft 464 kts 149°
2026-05-06 11:32 48.12134 21.00750 36933 ft 465 kts 149°
2026-05-06 11:32 48.06750 21.06109 36930 ft 465 kts 149°
2026-05-06 11:33 48.01365 21.11456 36935 ft 465 kts 149°
2026-05-06 11:33 47.95972 21.16797 36933 ft 465 kts 149°
2026-05-06 11:34 47.90569 21.22134 36938 ft 466 kts 149°
2026-05-06 11:34 47.85164 21.27459 36939 ft 466 kts 149°
2026-05-06 11:35 47.79752 21.32778 36944 ft 466 kts 149°
2026-05-06 11:35 47.74334 21.38090 36953 ft 467 kts 149°
2026-05-06 11:36 47.68907 21.43396 36955 ft 467 kts 149°
2026-05-06 11:36 47.63476 21.48694 36960 ft 468 kts 150°
2026-05-06 11:37 47.58033 21.53989 36965 ft 468 kts 150°
2026-05-06 11:37 47.52583 21.59278 36962 ft 469 kts 150°
2026-05-06 11:38 47.47124 21.64562 36966 ft 469 kts 150°
2026-05-06 11:38 47.41667 21.69834 36966 ft 470 kts 150°
2026-05-06 11:39 47.36187 21.75116 36962 ft 470 kts 150°
2026-05-06 11:39 47.30711 21.80380 36964 ft 470 kts 150°
2026-05-06 11:40 47.25268 21.85616 36979 ft 471 kts 149°
2026-05-06 11:40 47.19808 21.91074 36988 ft 472 kts 149°
2026-05-06 11:41 47.14407 21.96449 36989 ft 472 kts 149°
2026-05-06 11:41 47.08963 22.01852 36995 ft 472 kts 149°
2026-05-06 11:42 47.03519 22.07240 36989 ft 472 kts 149°
2026-05-06 11:42 46.98068 22.12624 36988 ft 473 kts 149°
2026-05-06 11:43 46.92607 22.18002 36988 ft 473 kts 149°
2026-05-06 11:43 46.87137 22.23377 36980 ft 474 kts 149°
2026-05-06 11:44 46.78921 22.31424 36989 ft 474 kts 149°
2026-05-06 11:44 46.73438 22.36777 36980 ft 474 kts 149°
2026-05-06 11:45 46.67949 22.42124 36980 ft 475 kts 149°
2026-05-06 11:45 46.62449 22.47466 36979 ft 476 kts 149°
2026-05-06 11:46 46.56939 22.52806 36979 ft 476 kts 149°
2026-05-06 11:46 46.51420 22.58142 36989 ft 476 kts 149°
2026-05-06 11:47 46.45901 22.63464 36988 ft 477 kts 149°
2026-05-06 11:47 46.40377 22.68777 36973 ft 476 kts 149°
2026-05-06 11:48 46.34852 22.74079 36993 ft 477 kts 149°
2026-05-06 11:48 46.29316 22.79378 36995 ft 478 kts 149°
2026-05-06 11:49 46.23764 22.84679 36979 ft 478 kts 149°
2026-05-06 11:49 46.18214 22.89966 36986 ft 478 kts 149°
2026-05-06 11:50 46.12691 22.95213 36980 ft 479 kts 149°
2026-05-06 11:50 46.07123 23.00491 36968 ft 479 kts 149°
2026-05-06 11:51 46.01550 23.05761 36969 ft 480 kts 149°
2026-05-06 11:51 45.95973 23.11022 36974 ft 480 kts 149°
2026-05-06 11:52 45.90384 23.16280 36955 ft 480 kts 149°
2026-05-06 11:52 45.84788 23.21532 36968 ft 481 kts 149°
2026-05-06 11:53 45.79184 23.26779 36967 ft 481 kts 149°
2026-05-06 11:53 45.73577 23.32016 36971 ft 482 kts 149°
2026-05-06 11:54 45.67958 23.37251 36979 ft 482 kts 149°
2026-05-06 11:54 45.62331 23.42482 36988 ft 483 kts 149°
2026-05-06 11:55 45.56699 23.47705 36993 ft 483 kts 149°
2026-05-06 11:55 45.51065 23.52915 36990 ft 483 kts 148°
2026-05-06 11:56 45.45414 23.58131 37009 ft 484 kts 148°
2026-05-06 11:56 45.39766 23.63329 37000 ft 484 kts 148°
2026-05-06 11:57 45.34100 23.68532 37002 ft 484 kts 148°
2026-05-06 11:57 45.28438 23.73719 37018 ft 485 kts 148°
2026-05-06 11:58 45.22758 23.78909 37013 ft 486 kts 148°
2026-05-06 11:58 45.17068 23.84097 37001 ft 486 kts 148°
2026-05-06 11:59 45.11380 23.89269 37000 ft 486 kts 148°
2026-05-06 11:59 45.05688 23.94434 36999 ft 487 kts 148°
2026-05-06 12:00 44.99978 23.99603 37002 ft 487 kts 148°
2026-05-06 12:00 44.94261 24.04764 37001 ft 488 kts 148°
2026-05-06 12:01 44.88575 24.09886 37000 ft 488 kts 148°
2026-05-06 12:01 44.82858 24.15024 37004 ft 488 kts 148°
2026-05-06 12:02 44.77133 24.20157 36999 ft 488 kts 148°
2026-05-06 12:02 44.71405 24.25280 36999 ft 488 kts 148°
2026-05-06 12:03 44.65666 24.30400 37000 ft 488 kts 148°
2026-05-06 12:03 44.59926 24.35509 37000 ft 488 kts 148°
2026-05-06 12:04 44.54184 24.40608 37004 ft 489 kts 148°
2026-05-06 12:04 44.48440 24.45699 37008 ft 489 kts 148°
2026-05-06 12:05 44.42687 24.50786 37006 ft 489 kts 148°
2026-05-06 12:05 44.36932 24.55864 37007 ft 489 kts 148°
2026-05-06 12:06 44.31180 24.60927 37005 ft 489 kts 148°
2026-05-06 12:06 44.25400 24.65947 37006 ft 489 kts 150°
2026-05-06 12:07 44.19553 24.70813 37010 ft 490 kts 149°
2026-05-06 12:07 44.13709 24.75697 37007 ft 490 kts 149°
2026-05-06 12:08 44.07867 24.80570 37009 ft 490 kts 149°
2026-05-06 12:08 44.02018 24.85439 37006 ft 490 kts 149°
2026-05-06 12:09 43.96206 24.90264 37006 ft 490 kts 149°
2026-05-06 12:09 43.90348 24.95117 37007 ft 490 kts 149°
2026-05-06 12:10 43.84490 24.99959 37009 ft 490 kts 149°
2026-05-06 12:10 43.78630 25.04790 37011 ft 490 kts 149°
2026-05-06 12:11 43.72763 25.09617 37005 ft 491 kts 149°
2026-05-06 12:11 43.66899 25.14430 37006 ft 491 kts 149°
2026-05-06 12:12 43.61022 25.19243 37002 ft 491 kts 149°
2026-05-06 12:12 43.55151 25.24040 37005 ft 491 kts 149°
2026-05-06 12:13 43.49276 25.28829 37002 ft 491 kts 149°
2026-05-06 12:13 43.43400 25.33607 37000 ft 491 kts 149°
2026-05-06 12:14 43.37511 25.38386 37002 ft 491 kts 149°
2026-05-06 12:14 43.31629 25.43149 36997 ft 491 kts 149°
2026-05-06 12:15 43.25741 25.47904 36999 ft 491 kts 149°
2026-05-06 12:15 43.19858 25.52646 36993 ft 491 kts 149°
2026-05-06 12:16 43.14009 25.57348 36994 ft 491 kts 149°
2026-05-06 12:16 43.08118 25.62075 36990 ft 491 kts 149°
2026-05-06 12:17 43.02224 25.66793 36995 ft 491 kts 149°
2026-05-06 12:17 42.96328 25.71502 37004 ft 491 kts 150°
2026-05-06 12:18 42.90424 25.76207 37009 ft 491 kts 150°
2026-05-06 12:18 42.85516 25.80111 37016 ft 491 kts 150°
2026-05-06 12:19 42.79609 25.84799 37022 ft 491 kts 150°
2026-05-06 12:19 42.73703 25.89475 37033 ft 491 kts 150°
2026-05-06 12:20 42.67798 25.94141 37027 ft 491 kts 150°
2026-05-06 12:20 42.61893 25.98796 37043 ft 491 kts 150°
2026-05-06 12:21 42.55976 26.03451 37035 ft 491 kts 150°
2026-05-06 12:21 42.50056 26.08097 37042 ft 491 kts 150°
2026-05-06 12:22 42.44145 26.12726 37041 ft 491 kts 150°
2026-05-06 12:22 42.38224 26.17353 37044 ft 491 kts 150°
2026-05-06 12:23 42.32307 26.21967 37044 ft 491 kts 150°
2026-05-06 12:23 42.26390 26.26571 37041 ft 491 kts 150°
2026-05-06 12:24 42.20467 26.31168 37039 ft 491 kts 150°
2026-05-06 12:24 42.14548 26.35753 37042 ft 491 kts 150°
2026-05-06 12:25 42.08620 26.40336 37051 ft 491 kts 150°
2026-05-06 12:25 42.02694 26.44908 37045 ft 491 kts 150°
2026-05-06 12:26 41.96762 26.49475 37045 ft 491 kts 150°
2026-05-06 12:26 41.90833 26.54031 37040 ft 491 kts 150°
2026-05-06 12:27 41.85040 26.58882 37057 ft 491 kts 145°
2026-05-06 12:27 41.79440 26.64153 37046 ft 491 kts 144°
2026-05-06 12:28 41.73851 26.69430 37048 ft 492 kts 144°
2026-05-06 12:28 41.68260 26.74700 37053 ft 492 kts 144°
2026-05-06 12:29 41.62660 26.79967 37053 ft 492 kts 144°
2026-05-06 12:29 41.57062 26.85221 37042 ft 492 kts 144°
2026-05-06 12:30 41.51461 26.90465 37050 ft 492 kts 145°
2026-05-06 12:30 41.45852 26.95707 37050 ft 492 kts 144°
2026-05-06 12:31 41.40245 27.00935 37049 ft 492 kts 145°
2026-05-06 12:31 41.34627 27.06164 37054 ft 492 kts 145°
2026-05-06 12:32 41.29004 27.11384 37051 ft 493 kts 145°
2026-05-06 12:32 41.23379 27.16596 37054 ft 493 kts 145°
2026-05-06 12:33 41.17749 27.21800 37048 ft 493 kts 145°
2026-05-06 12:33 41.12150 27.26963 37059 ft 493 kts 145°
2026-05-06 12:34 41.06512 27.32153 37057 ft 494 kts 145°
2026-05-06 12:34 41.00868 27.37336 37056 ft 494 kts 145°
2026-05-06 12:35 40.95197 27.42475 37057 ft 494 kts 150°
2026-05-06 12:35 40.89213 27.46903 37061 ft 494 kts 150°
2026-05-06 12:36 40.83255 27.51420 37071 ft 494 kts 150°
2026-05-06 12:36 40.77296 27.55948 37082 ft 494 kts 150°
2026-05-06 12:37 40.71344 27.60463 37085 ft 494 kts 150°
2026-05-06 12:37 40.65389 27.64971 37078 ft 489 kts 150°
2026-05-06 12:38 40.59551 27.69381 37071 ft 482 kts 150°
2026-05-06 12:38 40.53729 27.73771 37077 ft 482 kts 150°
2026-05-06 12:39 40.47906 27.78151 37072 ft 483 kts 150°
2026-05-06 12:39 40.42077 27.82528 37075 ft 482 kts 150°
2026-05-06 12:40 40.36245 27.86899 37073 ft 483 kts 151°
2026-05-06 12:40 40.30411 27.91262 37070 ft 483 kts 151°
2026-05-06 12:41 40.24575 27.95617 37069 ft 483 kts 151°
2026-05-06 12:41 40.18739 27.99965 37072 ft 483 kts 151°
2026-05-06 12:42 40.12897 28.04308 37087 ft 483 kts 151°
2026-05-06 12:42 40.07051 28.08645 37067 ft 483 kts 151°
2026-05-06 12:43 40.01203 28.12975 37064 ft 483 kts 151°
2026-05-06 12:43 39.95391 28.17272 37069 ft 484 kts 151°
2026-05-06 12:44 39.89520 28.21553 37068 ft 484 kts 152°
2026-05-06 12:44 39.83642 28.25835 37067 ft 484 kts 152°
2026-05-06 12:45 39.77764 28.30108 37070 ft 484 kts 152°
2026-05-06 12:46 39.68945 28.36503 37082 ft 484 kts 152°
2026-05-06 12:46 39.63056 28.40762 37062 ft 484 kts 152°
2026-05-06 12:47 39.57166 28.45015 37058 ft 485 kts 152°
2026-05-06 12:47 39.51273 28.49261 37067 ft 485 kts 152°
2026-05-06 12:48 39.45381 28.53498 37085 ft 485 kts 152°
2026-05-06 12:48 39.39477 28.57736 37076 ft 485 kts 152°
2026-05-06 12:49 39.33578 28.61963 37073 ft 485 kts 152°
2026-05-06 12:49 39.27664 28.66190 37070 ft 485 kts 152°
2026-05-06 12:50 39.21757 28.70405 37072 ft 485 kts 152°
2026-05-06 12:50 39.15846 28.74615 37069 ft 485 kts 152°
2026-05-06 12:51 39.09935 28.78817 37068 ft 485 kts 152°
2026-05-06 12:51 39.04031 28.83026 37060 ft 485 kts 152°
2026-05-06 12:52 38.98125 28.87231 37064 ft 486 kts 152°
2026-05-06 12:52 38.92212 28.91432 37079 ft 486 kts 152°
2026-05-06 12:53 38.86289 28.95632 37069 ft 486 kts 152°
2026-05-06 12:53 38.80360 28.99828 37080 ft 487 kts 152°
2026-05-06 12:54 38.74432 29.04016 37078 ft 487 kts 153°
2026-05-06 12:54 38.68496 29.08201 37074 ft 487 kts 153°
2026-05-06 12:55 38.62565 29.12377 37082 ft 487 kts 153°
2026-05-06 12:55 38.56631 29.16548 37095 ft 487 kts 153°
2026-05-06 12:56 38.50700 29.20709 37085 ft 487 kts 153°
2026-05-06 12:56 38.44759 29.24870 37090 ft 487 kts 153°
2026-05-06 12:57 38.38817 29.29022 37085 ft 487 kts 153°
2026-05-06 12:57 38.32875 29.33168 37094 ft 487 kts 153°
2026-05-06 12:58 38.26915 29.37318 37088 ft 488 kts 153°
2026-05-06 12:58 38.20951 29.41463 37091 ft 489 kts 153°
2026-05-06 12:59 38.14985 29.45602 37100 ft 489 kts 153°
2026-05-06 12:59 38.11990 29.47676 36921 ft 489 kts 153°
2026-05-06 12:59 38.09027 29.49728 36446 ft 484 kts 153°
2026-05-06 12:59 38.06072 29.51771 35779 ft 484 kts 153°
2026-05-06 13:00 38.03117 29.53813 35199 ft 483 kts 153°
2026-05-06 13:00 38.00181 29.55838 34725 ft 479 kts 153°
2026-05-06 13:00 37.97260 29.57852 34234 ft 476 kts 153°
2026-05-06 13:00 37.94354 29.59854 33658 ft 475 kts 153°
2026-05-06 13:01 37.91462 29.61844 33097 ft 472 kts 153°
2026-05-06 13:01 37.88584 29.63823 32603 ft 469 kts 153°
2026-05-06 13:01 37.85728 29.65786 32123 ft 466 kts 153°
2026-05-06 13:01 37.82883 29.67740 31611 ft 463 kts 153°
2026-05-06 13:02 37.80065 29.69692 31119 ft 461 kts 150°
2026-05-06 13:02 37.78335 29.71245 30727 ft 462 kts 137°
2026-05-06 13:02 37.75364 29.75065 30072 ft 458 kts 135°
2026-05-06 13:02 37.73105 29.77886 29561 ft 455 kts 135°
2026-05-06 13:03 37.70872 29.80697 29078 ft 452 kts 134°
2026-05-06 13:03 37.68661 29.83486 28600 ft 449 kts 135°
2026-05-06 13:03 37.66461 29.86262 28136 ft 445 kts 134°
2026-05-06 13:03 37.64278 29.89016 27677 ft 443 kts 134°
2026-05-06 13:04 37.62807 29.90869 27369 ft 441 kts 134°
2026-05-06 13:04 37.60643 29.93595 26918 ft 438 kts 134°
2026-05-06 13:04 37.58521 29.96265 26464 ft 436 kts 134°
2026-05-06 13:04 37.56384 29.98953 26026 ft 433 kts 134°
2026-05-06 13:05 37.54265 30.01648 25511 ft 433 kts 134°
2026-05-06 13:05 37.52142 30.04328 25078 ft 430 kts 137°
2026-05-06 13:05 37.49710 30.06437 24811 ft 421 kts 157°
2026-05-06 13:05 37.46954 30.07409 24717 ft 403 kts 177°
2026-05-06 13:06 37.44200 30.07579 24591 ft 392 kts 181°
2026-05-06 13:06 37.41500 30.07715 24337 ft 386 kts 182°
2026-05-06 13:06 37.38849 30.07527 24037 ft 378 kts 191°
2026-05-06 13:06 37.36261 30.07156 23802 ft 375 kts 190°
2026-05-06 13:07 37.33661 30.06791 23542 ft 375 kts 191°
2026-05-06 13:07 37.31067 30.06424 23271 ft 374 kts 191°
2026-05-06 13:07 37.28488 30.06058 23019 ft 373 kts 190°
2026-05-06 13:07 37.25919 30.05693 22778 ft 371 kts 190°
2026-05-06 13:08 37.23362 30.05330 22534 ft 370 kts 190°
2026-05-06 13:08 37.20795 30.04974 22278 ft 370 kts 188°
2026-05-06 13:08 37.18223 30.05157 21963 ft 373 kts 169°
2026-05-06 13:08 37.15830 30.06375 21725 ft 372 kts 148°
2026-05-06 13:09 37.13878 30.08484 21498 ft 372 kts 127°
2026-05-06 13:09 37.12561 30.11238 21272 ft 367 kts 108°
2026-05-06 13:09 37.11964 30.14295 21049 ft 360 kts 94°
2026-05-06 13:09 37.11631 30.17406 20808 ft 359 kts 93°
2026-05-06 13:10 37.11337 30.20481 20564 ft 353 kts 92°
2026-05-06 13:10 37.11064 30.23513 20290 ft 348 kts 92°
2026-05-06 13:10 37.10807 30.26501 20055 ft 342 kts 92°
2026-05-06 13:10 37.10567 30.29440 19840 ft 335 kts 89°
2026-05-06 13:11 37.10773 30.32270 19617 ft 319 kts 67°
2026-05-06 13:11 37.11750 30.34642 19414 ft 298 kts 44°
2026-05-06 13:11 37.13255 30.36295 19250 ft 282 kts 24°
2026-05-06 13:11 37.15042 30.37210 19071 ft 276 kts
2026-05-06 13:12 37.16911 30.37731 18900 ft 276 kts
2026-05-06 13:12 37.18771 30.38155 18720 ft 275 kts
2026-05-06 13:12 37.20661 30.38514 18523 ft 274 kts
2026-05-06 13:12 37.22549 30.38828 18340 ft 273 kts
2026-05-06 13:13 37.24433 30.39117 18148 ft 273 kts
2026-05-06 13:13 37.26316 30.39392 17958 ft 272 kts
2026-05-06 13:13 37.28195 30.39658 17774 ft 271 kts
2026-05-06 13:13 37.30072 30.39917 17588 ft 271 kts
2026-05-06 13:14 37.31940 30.40171 17387 ft 270 kts
2026-05-06 13:14 37.33807 30.40425 17254 ft 269 kts
2026-05-06 13:14 37.35664 30.40682 17291 ft 269 kts
2026-05-06 13:14 37.37528 30.40939 17267 ft 270 kts
2026-05-06 13:15 37.39394 30.41198 17245 ft 269 kts
2026-05-06 13:15 37.41257 30.41459 17256 ft 270 kts
2026-05-06 13:15 37.43122 30.41717 17254 ft 270 kts
2026-05-06 13:15 37.44992 30.41976 17243 ft 271 kts
2026-05-06 13:16 37.46847 30.42412 17200 ft 280 kts 18°
2026-05-06 13:16 37.48467 30.43904 17117 ft 304 kts 47°
2026-05-06 13:16 37.49401 30.46340 17048 ft 319 kts 74°
2026-05-06 13:16 37.49523 30.49161 17009 ft 329 kts 95°
2026-05-06 13:17 37.48808 30.51908 16943 ft 335 kts 122°
2026-05-06 13:17 37.47184 30.53969 16892 ft 335 kts 150°
2026-05-06 13:17 37.45009 30.54883 16693 ft 330 kts 179°
2026-05-06 13:17 37.42773 30.54550 16399 ft 323 kts 199°
2026-05-06 13:18 37.40563 30.53983 16070 ft 325 kts 191°
2026-05-06 13:18 37.38320 30.53625 15718 ft 325 kts 189°
2026-05-06 13:18 37.36071 30.53327 15378 ft 324 kts 189°
2026-05-06 13:18 37.33835 30.53019 15058 ft 322 kts 189°
2026-05-06 13:19 37.31609 30.52707 14733 ft 321 kts 189°
2026-05-06 13:19 37.29394 30.52392 14425 ft 320 kts 189°
2026-05-06 13:19 37.27180 30.52086 14049 ft 321 kts 188°
2026-05-06 13:19 37.24964 30.51780 13691 ft 320 kts 188°
2026-05-06 13:20 37.22756 30.51474 13350 ft 318 kts 188°
2026-05-06 13:20 37.20561 30.51170 13011 ft 316 kts 188°
2026-05-06 13:20 37.18377 30.50867 12681 ft 315 kts 188°
2026-05-06 13:20 37.16193 30.50565 12231 ft 318 kts 187°
2026-05-06 13:21 37.13984 30.50268 11867 ft 318 kts 186°
2026-05-06 13:21 37.11765 30.50556 11235 ft 328 kts 161°
2026-05-06 13:21 37.09837 30.52042 10945 ft 323 kts 135°
2026-05-06 13:21 37.08583 30.54241 10979 ft 304 kts 108°
2026-05-06 13:22 37.08333 30.56780 11002 ft 292 kts 79°
2026-05-06 13:22 37.08996 30.59129 10978 ft 286 kts 55°
2026-05-06 13:22 37.10171 30.61131 10687 ft 285 kts 49°
2026-05-06 13:22 37.11416 30.63058 10327 ft 285 kts 42°
2026-05-06 13:23 37.13042 30.64409 9938 ft 280 kts 18°
2026-05-06 13:23 37.14923 30.64952 9573 ft 278 kts
2026-05-06 13:23 37.16812 30.65307 9195 ft 278 kts
2026-05-06 13:23 37.18734 30.65644 8811 ft 279 kts
2026-05-06 13:24 37.20575 30.66435 8363 ft 285 kts 30°
2026-05-06 13:24 37.22194 30.67883 7954 ft 287 kts 33°
2026-05-06 13:24 37.23822 30.69345 7527 ft 289 kts 36°
2026-05-06 13:24 37.25139 30.71256 7087 ft 295 kts 60°
2026-05-06 13:25 37.25989 30.73599 6683 ft 296 kts 64°
2026-05-06 13:25 37.26843 30.75959 6288 ft 297 kts 64°
2026-05-06 13:25 37.27646 30.78314 6117 ft 288 kts 72°
2026-05-06 13:25 37.27732 30.80754 6076 ft 277 kts 103°
2026-05-06 13:26 37.26868 30.82831 6059 ft 268 kts 133°
2026-05-06 13:26 37.25353 30.84150 6039 ft 267 kts 160°
2026-05-06 13:26 37.23533 30.84523 5984 ft 266 kts 184°
2026-05-06 13:26 37.21764 30.83957 5868 ft 263 kts 207°
2026-05-06 13:27 37.20086 30.83019 5703 ft 266 kts 194°
2026-05-06 13:27 37.18251 30.82899 5499 ft 266 kts 179°
2026-05-06 13:27 37.16390 30.82908 5110 ft 271 kts 181°
2026-05-06 13:27 37.14484 30.82848 4646 ft 277 kts 182°
2026-05-06 13:28 37.12590 30.82748 4479 ft 265 kts 182°
2026-05-06 13:28 37.10803 30.82651 4359 ft 252 kts 182°
2026-05-06 13:28 37.09079 30.82459 4051 ft 247 kts 190°
2026-05-06 13:28 37.07447 30.81843 3739 ft 243 kts 195°
2026-05-06 13:29 37.05815 30.81408 3337 ft 238 kts 186°
2026-05-06 13:29 37.04180 30.81202 2974 ft 233 kts 183°
2026-05-06 13:29 37.02605 30.81001 2628 ft 221 kts 184°
2026-05-06 13:29 37.01127 30.80794 2342 ft 207 kts 184°
2026-05-06 13:30 36.99753 30.80605 2003 ft 195 kts 185°
2026-05-06 13:30 36.98455 30.80423 1700 ft 179 kts 185°
2026-05-06 13:30 36.97280 30.80259 1423 ft 159 kts 185°
2026-05-06 13:30 36.96244 30.80120 1261 ft 144 kts 185°
2026-05-06 13:31 36.95244 30.79980 1033 ft 142 kts 185°
2026-05-06 13:31 36.94271 30.79849 829 ft 142 kts 185°
2026-05-06 13:31 36.93297 30.79716 616 ft 140 kts 185°
2026-05-06 13:31 36.92346 30.79583 391 ft 135 kts 184°
2026-05-06 13:32 36.91415 30.79462 222 ft 138 kts 185°
2026-05-06 13:32 36.90539 30.79341 206 ft 103 kts 187°
2026-05-06 13:32 36.90042 30.79271 203 ft 57 kts 186°
2026-05-06 13:32 36.89740 30.79228 195 ft 35 kts 186°
2026-05-06 13:33 36.89572 30.79243 192 ft 17 kts 155°
2026-05-06 13:33 36.89492 30.79286 195 ft 9 kts 156°
2026-05-06 13:33 36.89442 30.79313 197 ft 7 kts 156°
2026-05-06 13:33 36.89415 30.79328 194 ft 3 kts 156°
2026-05-06 13:34 36.89394 30.79340 198 ft 2 kts 156°
2026-05-06 13:34 36.89379 30.79348 201 ft 2 kts 157°
2026-05-06 13:34 36.89366 30.79355 196 ft 1 kts 157°
2026-05-06 13:34 36.89358 30.79359 203 ft 1 kts 157°
2026-05-06 13:35 36.89349 30.79364 194 ft 2 kts 157°
2026-05-06 13:35 36.89326 30.79377 194 ft 5 kts 146°
2026-05-06 13:35 36.89308 30.79419 197 ft 7 kts 102°
2026-05-06 13:35 36.89302 30.79488 202 ft 9 kts 97°
2026-05-06 13:36 36.89293 30.79578 198 ft 12 kts 97°
2026-05-06 13:36 36.89284 30.79665 195 ft 7 kts 95°
2026-05-06 13:36 36.89306 30.79696 195 ft 5 kts
2026-05-06 13:36 36.89338 30.79699 208 ft 3 kts
2026-05-06 13:37 36.89356 30.79701 201 ft 1 kts
2026-05-06 13:37 36.89358 30.79701 200 ft 0 kts